Skip Page Navigation
NASA JPL Caltech
NASA Logo - Jet Propulsion Laboratory + View the NASA Portal
+ Near-Earth Object (NEO) Program
Search JPL
JPL Home Earth Solar System Stars & Galaxies Technology
JPL Solar System Dynamics
BODIES ORBITS EPHEMERIDES TOOLS PHYSICAL DATA DISCOVERY FAQ SITE MAP
JPL Small-Body Database Browser
Search: [ help ]  
37682 (1995 GZ6)
Classification: Main-belt Asteroid          SPK-ID: 2037682
Ephemeris | Orbit Diagram | Orbital Elements | Physical Parameters | Discovery Circumstances ]

[ show orbit diagram ]
Orbital Elements at Epoch 2457000.5 (2014-Dec-09.0) TDB
Reference: JPL 3 (heliocentric ecliptic J2000)
 Element Value Uncertainty (1-sigma)   Units 
e .1710631226252518 6.7374e-08  
a 2.305122601603591 2.0382e-08 AU
q 1.910801131339237 1.5259e-07 AU
i 6.25375839808298 8.1796e-06 deg
node 126.6025757178408 6.1603e-05 deg
peri 147.5867025368545 6.6446e-05 deg
M 146.4999674721971 2.8453e-05 deg
tp 2456480.295029114010
(2013-Jul-06.79502911)
9.9093e-05 JED
period 1278.31966621083
3.50
1.6955e-05
4.642e-08
d
yr
n .2816196992940778 3.7352e-09 deg/d
Q 2.699444071867945 2.3869e-08 AU
  Orbit Determination Parameters
   # obs. used (total)      490  
   data-arc span      6684 days (18.30 yr)  
   first obs. used      1995-03-27  
   last obs. used      2013-07-14  
   planetary ephem.      DE431  
   SB-pert. ephem.      SB431-BIG16  
   condition code      0  
   fit RMS      .49517  
   data source      ORB  
   producer      Otto Matic  
   solution date      2014-Jun-10 04:30:27  

Additional Information
 Earth MOID = .899258 AU 
 T_jup = 3.561 
[ show covariance matrix ]

Ephemeris | Orbit Diagram | Orbital Elements | Physical Parameters | Discovery Circumstances ]

Physical Parameter Table
Parameter Symbol Value Units Sigma Reference Notes
absolute magnitude H 15.0 mag n/a MPO266135  

37682 (1995 GZ6)          Discovered 1995-Apr-04 by BAO Schmidt CCD Asteroid Program at Xinglong (327)
Reference: 20020328/Numbers.arcLast Updated: 2004-04-19

Alternate Designations
 1995 GZ6 = 1999 LW27 = 2000 RF61 
Ephemeris | Orbit Diagram | Orbital Elements | Physical Parameters | Discovery Circumstances ]
ABOUT SSD CREDITS/AWARDS PRIVACY/COPYRIGHT GLOSSARY LINKS
FirstGov 2014-Sep-23 10:21 UT
(server date/time)  
NASA Home Page
Site Manager:   Donald K. Yeomans
Webmaster  Alan B. Chamberlin